SQ7FZR-13 Weather Reports


Display with metric or nautical units.
time (UTC)temp
F
wind
direction
speed
MPH
gust
MPH
rain 1hr
in
rain 24hr
in
rain mn
in
humidity
%
barometer
mb
20260905215222 56 156 3.0 5.0 0.00 0.13 0.12 82 1016.5
20260905214522 56 181 2.0 6.0 0.00 0.13 0.12 82 1016.5
20260905213822 56 181 1.0 2.0 0.00 0.15 0.12 83 1016.6
20260905213122 56 173 1.0 5.0 0.00 0.15 0.12 83 1016.3
20260905212422 55 176 2.0 5.0 0.00 0.15 0.12 83 1016.4
20260905211722 56 181 1.0 6.0 0.00 0.15 0.12 83 1016.6
20260905211022 56 181 2.0 6.0 0.00 0.15 0.12 83 1016.4
20260905210322 56 178 2.0 3.0 0.00 0.17 0.12 83 1016.4
20260905205622 56 107 2.0 3.0 0.00 0.17 0.12 83 1016.3
20260905204922 56 176 2.0 7.0 0.00 0.17 0.12 84 1016.3
20260905202122 55 175 2.0 6.0 0.00 0.17 0.12 84 1015.7
20260905201422 55 181 2.0 6.0 0.00 0.17 0.12 84 1015.8
20260905200722 55 181 1.0 3.0 0.00 0.17 0.12 83 1016.1
20260905200022 55 181 0.0 1.0 0.00 0.17 0.12 83 1016.1
20260905195322 55 181 0.0 1.0 0.00 0.17 0.12 83 1016.2
20260905194622 55 0 0.0 0.0 0.00 0.17 0.12 82 1016.1
20260905193922 55 0 0.0 0.0 0.00 0.17 0.12 82 1016.1
20260905193222 56 0 0.0 0.0 0.00 0.17 0.12 81 1016.4
20260905192522 56 0 0.0 0.0 0.00 0.17 0.12 81 1016.4
20260905191122 56 0 0.0 0.0 0.04 0.17 0.12 80 1016.6
20260905185022 56 0 0.0 0.0 0.08 0.17 0.12 78 1016.7
20260905184322 57 156 1.0 6.0 0.08 0.17 0.12 78 1016.8
20260905183621 57 156 1.0 6.0 0.08 0.17 0.12 76 1016.9
20260905182922 58 0 0.0 0.0 0.08 0.17 0.12 75 1017.0
20260905181522 59 179 4.0 7.0 0.08 0.17 0.12 73 1017.2
20260905180822 59 1 1.0 7.0 0.00 0.08 0.04 71 1017.4
20260905180121 59 0 0.0 0.0 0.00 0.08 0.04 69 1016.8
20260905175421 60 0 0.0 0.0 0.00 0.08 0.04 69 1016.5
20260905174721 60 0 0.0 0.0 0.00 0.08 0.04 68 1016.7
20260905174021 60 181 0.0 1.0 0.00 0.08 0.04 67 1016.8
20260905173321 60 181 0.0 1.0 0.00 0.08 0.04 66 1016.3
20260905172621 60 0 0.0 0.0 0.00 0.08 0.04 66 1016.2
20260905171222 61 0 0.0 0.0 0.00 0.08 0.04 65 1016.0
20260905170521 61 0 0.0 0.0 0.00 0.08 0.04 64 1016.0
20260905165821 62 0 0.0 0.0 0.00 0.08 0.04 64 1016.0
20260905165121 62 0 0.0 0.0 0.00 0.08 0.04 63 1016.1
20260905164421 62 1 0.0 4.0 0.00 0.08 0.04 62 1016.3
20260905163721 63 7 5.0 7.0 0.00 0.08 0.04 60 1016.2
20260905163021 64 12 7.0 8.0 0.00 0.08 0.04 58 1016.1
20260905162321 66 13 4.0 6.0 0.00 0.08 0.04 55 1016.6
20260905161621 67 20 3.0 6.0 0.00 0.08 0.04 53 1016.3
20260905160221 71 171 2.0 8.0 0.00 0.08 0.04 45 1015.4
20260905155521 72 158 3.0 8.0 0.00 0.08 0.04 45 1015.3
20260905154821 72 37 4.0 8.0 0.00 0.08 0.04 45 1015.2
20260905154121 72 181 3.0 5.0 0.00 0.08 0.04 46 1015.3
20260905153421 72 156 2.0 5.0 0.00 0.08 0.04 46 1015.1
20260905152721 71 138 3.0 5.0 0.00 0.08 0.04 46 1015.1
20260905152021 71 64 3.0 6.0 0.00 0.08 0.04 45 1015.2
20260905151321 71 135 4.0 6.0 0.00 0.08 0.04 44 1015.1
20260905150621 71 232 3.0 6.0 0.00 0.08 0.04 44 1015.3
20260905145921 72 178 5.0 7.0 0.00 0.08 0.04 44 1015.2
20260905145221 71 184 6.0 8.0 0.00 0.08 0.04 46 1015.1
20260905144521 71 15 4.0 10.0 0.00 0.08 0.04 46 1015.2
20260905143821 71 148 4.0 6.0 0.00 0.08 0.04 46 1015.3
20260905143121 71 55 2.0 6.0 0.00 0.08 0.04 47 1015.3
20260905142421 71 5 4.0 6.0 0.00 0.08 0.04 46 1015.3
20260905141721 72 9 7.0 12.0 0.00 0.08 0.04 46 1015.3
20260905141021 72 14 7.0 12.0 0.00 0.08 0.04 45 1015.2
20260905135621 73 46 4.0 5.0 0.00 0.08 0.04 46 1015.0
20260905134221 73 130 2.0 7.0 0.00 0.08 0.04 48 1015.0
20260905133521 72 4 5.0 7.0 0.00 0.08 0.04 50 1014.8
20260905132821 71 5 5.0 7.0 0.00 0.08 0.04 51 1015.0
20260905132121 71 17 5.0 8.0 0.00 0.08 0.04 51 1014.9
20260905131421 71 3 7.0 10.0 0.00 0.08 0.04 51 1015.1
20260905130021 72 41 3.0 5.0 0.00 0.08 0.04 51 1014.9
20260905125321 71 12 2.0 4.0 0.00 0.08 0.04 51 1014.9
20260905124621 71 12 5.0 11.0 0.00 0.08 0.04 47 1014.9
20260905123921 72 13 3.0 9.0 0.00 0.08 0.04 47 1014.8
20260905122521 73 33 5.0 6.0 0.00 0.08 0.04 48 1014.7
20260905121821 72 102 6.0 7.0 0.00 0.08 0.04 49 1014.7
20260905121121 72 119 2.0 7.0 0.00 0.08 0.04 50 1014.6
20260905115721 71 181 2.0 5.0 0.00 0.08 0.04 52 1014.7
20260905115021 70 181 2.0 4.0 0.00 0.08 0.04 56 1014.7
20260905114321 69 183 3.0 4.0 0.00 0.08 0.04 55 1014.7
20260905113621 69 106 4.0 8.0 0.00 0.08 0.04 56 1014.7
20260905112921 69 35 5.0 8.0 0.00 0.08 0.04 56 1014.8
20260905112221 69 179 6.0 8.0 0.00 0.08 0.04 57 1014.7
20260905111521 69 112 6.0 9.0 0.00 0.08 0.04 58 1014.6
20260905110821 69 28 4.0 7.0 0.00 0.08 0.04 59 1014.7
20260905110120 68 8 6.0 8.0 0.00 0.08 0.04 60 1014.6
20260905105420 67 15 6.0 8.0 0.00 0.08 0.04 61 1014.7
20260905104721 66 18 4.0 13.0 0.00 0.08 0.04 62 1014.7
20260905103320 67 45 6.0 13.0 0.00 0.08 0.04 61 1014.5
20260905102621 66 30 3.0 5.0 0.00 0.08 0.04 62 1014.4
20260905101921 66 15 3.0 7.0 0.00 0.08 0.04 62 1014.3
20260905101220 66 4 1.0 7.0 0.00 0.08 0.04 63 1014.1
20260905100520 66 146 2.0 4.0 0.00 0.08 0.04 63 1014.1
20260905095820 66 185 5.0 9.0 0.00 0.08 0.04 65 1014.2
20260905095120 66 185 6.0 9.0 0.00 0.08 0.04 65 1014.2
20260905094420 65 172 4.0 10.0 0.00 0.08 0.04 66 1014.2
20260905093020 65 27 6.0 8.0 0.00 0.08 0.04 67 1014.2
20260905092320 65 172 6.0 8.0 0.00 0.08 0.04 68 1013.8
20260905091620 65 45 5.0 7.0 0.00 0.08 0.04 69 1013.8
20260905090920 65 24 3.0 7.0 0.00 0.08 0.04 70 1013.8
20260905090220 65 350 3.0 5.0 0.00 0.08 0.04 70 1013.8
20260905085520 65 213 4.0 6.0 0.00 0.08 0.04 70 1013.7
20260905084820 65 178 3.0 8.0 0.00 0.08 0.04 71 1013.9
20260905083420 64 154 3.0 7.0 0.00 0.08 0.04 72 1014.0
20260905082720 64 192 7.0 11.0 0.00 0.08 0.04 72 1013.9
20260905082020 64 177 3.0 7.0 0.00 0.08 0.04 73 1013.9
20260905080620 63 179 3.0 12.0 0.00 0.08 0.04 75 1013.8
20260905075920 63 150 3.0 6.0 0.00 0.08 0.04 76 1013.8
20260905075220 63 83 2.0 7.0 0.00 0.08 0.04 77 1013.6
20260905074520 62 28 4.0 7.0 0.00 0.08 0.04 77 1013.6
20260905073820 62 178 5.0 10.0 0.00 0.08 0.04 78 1013.4
20260905073120 62 181 4.0 10.0 0.00 0.08 0.04 78 1013.2
20260905072420 62 184 5.0 13.0 0.00 0.08 0.04 79 1013.2
20260905071720 62 97 5.0 13.0 0.00 0.08 0.04 79 1013.1
20260905071020 62 95 3.0 8.0 0.00 0.08 0.04 80 1013.0
20260905070320 62 166 3.0 8.0 0.00 0.08 0.04 80 1013.0
20260905065620 62 163 3.0 6.0 0.00 0.08 0.04 81 1012.9
20260905064920 61 181 3.0 4.0 0.00 0.08 0.04 81 1012.8
20260905064220 61 176 3.0 10.0 0.00 0.08 0.04 81 1012.7
20260905063520 61 59 2.0 7.0 0.00 0.08 0.04 82 1012.7
20260905062820 61 36 2.0 7.0 0.00 0.08 0.04 82 1012.6
20260905062120 61 130 2.0 5.0 0.00 0.08 0.04 83 1012.4
20260905061420 61 125 3.0 5.0 0.00 0.08 0.04 83 1012.3
20260905060020 61 178 3.0 7.0 0.00 0.08 0.04 83 1012.3
20260905055320 61 115 2.0 4.0 0.00 0.08 0.04 84 1012.2
20260905054620 61 168 4.0 6.0 0.00 0.08 0.04 84 1012.2
20260905053920 61 173 3.0 6.0 0.00 0.08 0.04 84 1012.0
20260905053220 61 181 4.0 5.0 0.00 0.08 0.04 85 1012.0
20260905051820 60 40 5.0 8.0 0.00 0.08 0.04 85 1011.9
20260905050420 60 23 4.0 15.0 0.00 0.08 0.04 86 1011.6
20260905045720 60 20 6.0 15.0 0.00 0.08 0.04 86 1011.4
20260905045020 60 2 4.0 6.0 0.00 0.08 0.04 87 1011.2
20260905044320 60 179 4.0 9.0 0.00 0.08 0.04 87 1011.0
20260905043620 60 188 3.0 9.0 0.00 0.08 0.04 87 1011.1
20260905041520 60 174 6.0 8.0 0.00 0.08 0.04 88 1010.8
20260905040820 60 162 2.0 5.0 0.00 0.08 0.04 88 1010.5
20260905035720 60 179 1.0 5.0 0.00 0.08 0.04 88 1010.3
20260905035020 60 181 1.0 5.0 0.00 0.08 0.04 88 1010.2
20260905033620 60 53 3.0 7.0 0.00 0.08 0.04 89 1010.1
20260905032920 60 181 2.0 5.0 0.00 0.08 0.04 89 1010.0
20260905025720 60 1 3.0 5.0 0.00 0.08 0.04 88 1009.8
20260905025020 60 168 7.0 9.0 0.00 0.08 0.04 88 1009.9
20260905024320 60 172 5.0 11.0 0.00 0.08 0.04 88 1010.0
20260905023619 60 138 1.0 11.0 0.00 0.08 0.04 88 1009.8
20260905022919 60 143 3.0 6.0 0.00 0.08 0.04 88 1010.1
20260905022219 60 176 5.0 5.0 0.00 0.08 0.04 87 1010.0
20260905021519 60 94 1.0 5.0 0.00 0.08 0.04 87 1009.5
20260905020819 60 174 1.0 5.0 0.00 0.08 0.04 87 1009.4
20260905015720 60 139 4.0 9.0 0.00 0.08 0.04 87 1009.5
20260905015020 60 181 7.0 10.0 0.00 0.08 0.04 87 1009.3
20260905014320 60 196 5.0 10.0 0.00 0.08 0.04 87 1009.4
20260905013620 60 193 2.0 8.0 0.00 0.08 0.04 87 1009.6
20260905012920 61 181 5.0 8.0 0.02 0.08 0.04 87 1009.6
20260905012220 61 182 4.0 5.0 0.02 0.08 0.04 87 1008.6
20260905011520 61 181 3.0 4.0 0.02 0.08 0.04 87 1009.1
20260905010820 61 2 3.0 7.0 0.02 0.08 0.04 87 1009.1
20260905005721 62 159 2.0 8.0 0.02 0.08 0.04 88 1009.1
20260905005021 62 159 3.0 9.0 0.02 0.08 0.04 88 1008.8
20260905004321 63 181 4.0 9.0 0.02 0.08 0.04 88 1008.7
20260905003621 63 0 0.0 0.0 0.02 0.08 0.04 88 1008.4
20260905002921 63 181 0.0 0.0 0.00 0.06 0.02 88 1008.5
20260905002221 63 201 1.0 2.0 0.00 0.06 0.02 87 1008.6
20260905001521 63 23 0.0 1.0 0.00 0.06 0.02 87 1008.5
20260905000821 63 22 0.0 1.0 0.00 0.06 0.02 87 1008.6
20260904235821 63 181 1.0 4.0 0.00 0.06 0.02 87 1007.9
20260904235121 63 181 2.0 3.0 0.00 0.06 0.02 87 1007.9
20260904234421 63 181 1.0 2.0 0.00 0.06 0.02 86 1007.8
20260904233721 63 0 0.0 0.0 0.00 0.06 0.02 86 1007.8
20260904233021 64 203 0.0 1.0 0.00 0.06 0.02 86 1007.8
20260904232321 64 203 0.0 1.0 0.00 0.06 0.02 86 1007.8
20260904231621 64 0 0.0 0.0 0.00 0.06 0.02 86 1007.7
20260904230921 64 181 1.0 3.0 0.00 0.06 0.02 86 1007.6
20260904230221 65 187 1.0 3.0 0.02 0.06 0.02 86 1007.6
20260904224121 65 0 0.0 0.0 0.04 0.06 0.02 84 1007.2
20260904222721 66 0 0.0 0.0 0.04 0.06 0.02 84 1007.2
20260904220621 66 1 1.0 2.0 0.06 0.06 0.02 82 1007.7
20260904215921 67 1 2.0 2.0 0.04 0.04 0.04 79 1007.4